[[{"header":{"parameterUnit":"m.s-1","parameterCategory":1,"la1":30.2991,"la2":30.254,"lo1":-89.0895,"lo2":-89.0444,"dy":0.0017,"dx":0.0017,"nx":28,"ny":28,"refTime":"2024-07-03T03:00:00:Z","depth":0,"parameterNumber":2,"parameterNumberName":"U-component_of_WINDS"},"data":[0,0,0,0,0,0,0,0,0,0,0,0,0,0,0,0,0,0,0,0,0,0,0,0,0,0,0,0,0,0,0,0,0,0,0,0,0,0,0,0,0,0,0,0,0,0,0,0,0,0,0,0,0,0,0,0,0,0,-0.7366,-0.7364,0,-0.7212,-0.721,-0.7208,-0.7148,-0.7149,-0.7149,-0.7149,-0.6989,-0.6984,-0.698,0,0,0,0,0,0,0,0,0,0,0,0,0,-0.7606,-0.7602,-0.7366,-0.7364,-0.7362,-0.7212,-0.721,-0.7208,-0.7148,-0.7149,-0.7149,-0.715,-0.699,-0.6985,-0.6979,0,0,0,0,0,0,0,0,0,0,0,0,0,-0.7482,-0.7601,-0.7366,-0.7314,-0.7308,-0.7212,-0.721,-0.7207,-0.7148,-0.7149,-0.7149,-0.715,-0.6992,-0.6986,-0.6979,-0.6923,0,0,-0.6957,-0.6954,0,0,0,0,0,0,0,0,-0.7489,-0.7473,-0.7324,-0.7317,-0.731,-0.72,-0.7236,-0.7112,-0.7148,-0.7209,-0.7149,-0.715,-0.7058,-0.7046,-0.7016,-0.6915,-0.6908,-0.6957,-0.6952,-0.6949,-0.6947,0,0,0,0,0,0,0,-0.7498,-0.748,-0.7305,-0.7321,-0.7313,-0.7298,-0.7281,-0.7212,-0.7132,-0.7203,-0.7199,-0.7181,-0.7055,-0.7023,-0.7011,-0.6906,-0.6957,-0.6951,-0.6946,-0.6944,-0.6753,-0.6752,0,0,0,0,0,0,-0.7515,-0.7487,-0.731,-0.73,-0.7403,-0.7293,-0.7274,-0.7235,-0.7132,-0.7117,-0.7181,-0.7179,-0.7034,-0.702,-0.7006,-0.6934,-0.6949,-0.6943,-0.6939,-0.6754,-0.6753,-0.6752,0,0,0,0,0,0,-0.7521,-0.75,-0.7316,-0.7392,-0.7368,-0.7288,-0.7244,-0.7231,-0.7199,-0.7115,-0.7101,-0.7163,-0.7034,-0.7015,-0.6944,-0.6927,-0.694,-0.6933,-0.6755,-0.6754,-0.6752,-0.679,0,0,0,0,0,0,-0.7528,-0.7502,-0.7481,-0.7392,-0.7364,-0.7257,-0.7243,-0.7228,-0.7187,-0.7183,-0.7094,-0.708,-0.7033,-0.6955,-0.6937,-0.6918,-0.6928,-0.6756,-0.6754,-0.6753,-0.679,-0.679,-0.6791,0,0,0,0,0,-0.7537,-0.7496,-0.748,-0.7459,-0.7335,-0.7257,-0.724,-0.7188,-0.7186,-0.7163,-0.711,-0.7083,-0.6933,-0.6948,-0.6928,-0.6906,-0.6757,-0.6755,-0.6753,-0.679,-0.679,-0.6791,0,0,0,0,0,0,-0.7583,-0.7484,-0.7464,-0.7394,-0.7335,-0.7247,-0.7216,-0.719,-0.7128,-0.7127,-0.7064,-0.7044,-0.6978,-0.6935,-0.6954,-0.6847,-0.6843,-0.6837,-0.6878,-0.6877,-0.6878,-0.6889,-0.6922,0,0,0,0,0,-0.7586,-0.7531,-0.7447,-0.7393,-0.7364,-0.7296,-0.726,-0.7225,-0.716,-0.7134,-0.7075,-0.7013,-0.6951,-0.6912,-0.6851,-0.6784,-0.6764,-0.6759,-0.676,-0.676,-0.6755,-0.6717,-0.6715,-0.6746,-0.6746,-0.6746,0,0,-0.7589,-0.7528,-0.7497,-0.7401,-0.7351,-0.7295,-0.7275,-0.7216,-0.7175,-0.7124,-0.7054,-0.7009,-0.6935,-0.6867,-0.6833,-0.6828,-0.6743,-0.6758,-0.6759,-0.6753,-0.6715,-0.6712,-0.671,-0.6744,-0.6745,-0.6745,0,0,-0.7568,-0.7516,-0.7466,-0.7417,-0.7341,-0.7296,-0.7285,-0.7201,-0.717,-0.7099,-0.706,-0.7009,-0.6905,-0.6854,-0.6815,-0.6777,-0.675,-0.6759,-0.676,-0.6724,-0.6721,-0.6719,-0.6705,-0.6701,-0.6754,-0.6754,-0.6754,0,-0.7582,-0.7497,-0.7444,-0.7388,-0.7347,-0.7301,-0.725,-0.7204,-0.7112,-0.7085,-0.7082,-0.6951,-0.6898,-0.6817,-0.6808,-0.6777,-0.6762,-0.6768,-0.6726,-0.6723,-0.672,-0.6706,-0.6701,-0.6756,-0.6756,-0.6756,-0.6755,0,-0.7518,-0.746,-0.7429,-0.7343,-0.7298,-0.7245,-0.7184,-0.7145,-0.7115,-0.707,-0.6999,-0.6934,-0.686,-0.6838,-0.6807,-0.6753,-0.6752,-0.6738,-0.6732,-0.6719,-0.6706,-0.67,-0.6758,-0.6758,-0.6757,-0.6757,0,0,-0.752,-0.7407,-0.7396,-0.7357,-0.7271,-0.7225,-0.7171,-0.7099,-0.7067,-0.7006,-0.6959,-0.6873,-0.686,-0.6815,-0.6778,-0.6747,-0.6721,-0.6736,-0.6734,-0.6736,-0.6658,-0.6669,-0.6664,-0.6704,-0.6703,-0.6702,-0.6665,0,-0.7487,-0.7387,-0.7339,-0.726,-0.7207,-0.7163,-0.7116,-0.7058,-0.7016,-0.6963,-0.6916,-0.6856,-0.6844,-0.6817,-0.6784,-0.6732,-0.6705,-0.6734,-0.6658,-0.6656,-0.6678,-0.6657,-0.6667,-0.6636,-0.6659,-0.6658,-0.6657,0,-0.7434,-0.7375,-0.7292,-0.7214,-0.719,-0.7148,-0.7079,-0.703,-0.6964,-0.6935,-0.6887,-0.6852,-0.6792,-0.6792,-0.671,-0.673,-0.6697,-0.6667,-0.6665,-0.6655,-0.6655,-0.6646,-0.6624,-0.6619,-0.6648,-0.6649,-0.665,0,-0.7444,-0.7343,-0.7281,-0.7249,-0.7156,-0.7128,-0.7088,-0.7023,-0.6984,-0.6924,-0.6897,-0.6831,-0.6795,-0.6744,-0.6692,-0.6696,-0.6615,-0.661,-0.6589,-0.659,-0.6573,-0.6574,-0.6545,-0.6552,-0.6552,-0.6553,-0.6553,0,-0.7412,-0.7363,-0.7284,-0.7246,-0.719,-0.7134,-0.708,-0.7037,-0.698,-0.6932,-0.6891,-0.6847,-0.6781,-0.6728,-0.6687,-0.6626,-0.6609,-0.6584,-0.6574,-0.6588,-0.6591,-0.6564,-0.6565,-0.6551,-0.6551,-0.6552,-0.6552,0,-0.7413,-0.7358,-0.7287,-0.7206,-0.7185,-0.7147,-0.7078,-0.7039,-0.6995,-0.6935,-0.6918,-0.6849,-0.6786,-0.6729,-0.6645,-0.6617,-0.6554,-0.6541,-0.6577,-0.6571,-0.6554,-0.6556,-0.6505,-0.6496,-0.6511,-0.6511,-0.6511,0,-0.7395,-0.7357,-0.7272,-0.7238,-0.7199,-0.7144,-0.7104,-0.7049,-0.7009,-0.6932,-0.6903,-0.6837,-0.6781,-0.6682,-0.6624,-0.6559,-0.6544,-0.6531,-0.6534,-0.655,-0.6544,-0.6547,-0.6543,-0.6531,-0.6531,-0.6531,-0.6531,0,-0.7371,-0.7346,-0.729,-0.7226,-0.718,-0.7126,-0.7071,-0.7045,-0.698,-0.6937,-0.6872,-0.6829,-0.6744,-0.6679,-0.6609,-0.6567,-0.6538,-0.6531,-0.6523,-0.6536,-0.6558,-0.6546,-0.6577,-0.6532,-0.6532,-0.6532,-0.6532,-0.6532,-0.7361,-0.7326,-0.7261,-0.7201,-0.7154,-0.7104,-0.7064,-0.7016,-0.6962,-0.6889,-0.6859,-0.6794,-0.673,-0.6633,-0.6592,-0.6539,-0.6534,-0.6522,-0.6519,-0.6516,-0.6519,-0.6568,-0.6526,-0.6526,-0.6526,-0.6526,-0.6526,0,-0.7334,-0.7291,-0.7237,-0.7162,-0.7115,-0.7094,-0.7032,-0.6994,-0.6937,-0.688,-0.6827,-0.6753,-0.6691,-0.6629,-0.6563,-0.6533,-0.6518,-0.6517,-0.6519,-0.651,-0.6528,-0.6541,-0.6531,-0.6531,-0.6531,-0.6531,-0.6531,-0.6531,-0.7315,-0.7253,-0.7222,-0.7137,-0.7093,-0.703,-0.6997,-0.695,-0.6905,-0.6825,-0.6773,-0.6734,-0.6675,-0.6605,-0.6547,-0.653,-0.6507,-0.651,-0.649,-0.6508,-0.6508,-0.6508,-0.6521,-0.6506,-0.6506,-0.6476,-0.6476,-0.6476]},{"header":{"parameterUnit":"m.s-1","parameterCategory":1,"la1":30.2991,"la2":30.254,"lo1":-89.0895,"lo2":-89.0444,"dy":0.0017,"dx":0.0017,"nx":28,"ny":28,"refTime":"2024-07-03T03:00:00:Z","depth":0,"parameterNumber":3,"parameterNumberName":"V-component_of_WINDS"},"data":[0,0,0,0,0,0,0,0,0,0,0,0,0,0,0,0,0,0,0,0,0,0,0,0,0,0,0,0,0,0,0,0,0,0,0,0,0,0,0,0,0,0,0,0,0,0,0,0,0,0,0,0,0,0,0,0,0,0,4.5142,4.5141,0,4.5095,4.5095,4.5094,4.5071,4.5071,4.5071,4.5071,4.5018,4.5017,4.5015,0,0,0,0,0,0,0,0,0,0,0,0,0,4.5206,4.5205,4.5142,4.5141,4.5141,4.5096,4.5095,4.5094,4.5071,4.5071,4.5071,4.5071,4.5019,4.5017,4.5015,0,0,0,0,0,0,0,0,0,0,0,0,0,4.5171,4.5204,4.5142,4.5124,4.5122,4.5096,4.5095,4.5094,4.5071,4.5071,4.5071,4.5071,4.5019,4.5017,4.5015,4.5002,0,0,4.5009,4.5008,0,0,0,0,0,0,0,0,4.5173,4.5168,4.5127,4.5125,4.5123,4.5089,4.5098,4.5063,4.5071,4.509,4.5071,4.5071,4.5041,4.5038,4.5029,4.5,4.4997,4.5008,4.5007,4.5006,4.5006,0,0,0,0,0,0,0,4.5175,4.517,4.5123,4.5126,4.5124,4.5116,4.5111,4.5091,4.5066,4.5088,4.5087,4.5082,4.504,4.5031,4.5027,4.4996,4.5009,4.5007,4.5005,4.5005,4.4954,4.4954,0,0,0,0,0,0,4.5181,4.5172,4.5125,4.5122,4.5148,4.5115,4.511,4.51,4.5066,4.5061,4.5082,4.5081,4.5034,4.503,4.5025,4.5008,4.5006,4.5004,4.5003,4.4954,4.4954,4.4954,0,0,0,0,0,0,4.5183,4.5177,4.5127,4.5147,4.514,4.5114,4.5103,4.5099,4.5089,4.5061,4.5056,4.5077,4.5034,4.5028,4.5008,4.5006,4.5003,4.5001,4.4955,4.4954,4.4954,4.4973,0,0,0,0,0,0,4.5185,4.5178,4.5174,4.5147,4.5139,4.5112,4.5103,4.5098,4.5086,4.5085,4.5056,4.5051,4.5034,4.5012,4.5006,4.5003,4.5,4.4955,4.4955,4.4954,4.4973,4.4974,4.4975,0,0,0,0,0,4.5187,4.5179,4.5173,4.5168,4.5133,4.5112,4.5107,4.5089,4.5086,4.5081,4.5063,4.5052,4.5007,4.501,4.5004,4.4999,4.4955,4.4955,4.4954,4.4972,4.4974,4.4975,0,0,0,0,0,0,4.5204,4.5176,4.5169,4.5153,4.5135,4.5108,4.5101,4.5091,4.5073,4.5072,4.5049,4.5042,4.5025,4.501,4.5013,4.4985,4.498,4.4978,4.4995,4.4996,4.4997,4.5001,4.4998,0,0,0,0,0,4.5207,4.5194,4.5168,4.5157,4.5149,4.5127,4.5116,4.5105,4.5085,4.5077,4.5057,4.5037,4.5019,4.5007,4.4988,4.4971,4.4964,4.4965,4.4966,4.4967,4.4966,4.4955,4.4955,4.4954,4.4954,4.4954,0,0,4.5211,4.5194,4.5186,4.516,4.5145,4.513,4.512,4.5105,4.5094,4.5074,4.5054,4.504,4.5015,4.4997,4.4988,4.4984,4.4965,4.4967,4.4968,4.4966,4.4955,4.4955,4.4956,4.4954,4.4954,4.4954,0,0,4.5211,4.5197,4.5186,4.5172,4.515,4.5136,4.5133,4.5108,4.5098,4.5078,4.5063,4.5048,4.5017,4.5001,4.4988,4.4983,4.4972,4.4978,4.4983,4.4973,4.4973,4.4973,4.4971,4.4971,4.4977,4.4977,4.4977,0,4.5218,4.5198,4.5181,4.5167,4.5156,4.5139,4.5127,4.5114,4.5086,4.5078,4.5075,4.5036,4.5018,4.4996,4.4995,4.4986,4.4981,4.4981,4.4975,4.4975,4.4974,4.4972,4.4972,4.4978,4.4978,4.4978,4.4977,0,4.5208,4.5193,4.5187,4.5163,4.5151,4.5138,4.5118,4.5108,4.5097,4.5082,4.5063,4.5042,4.5019,4.5012,4.5001,4.4988,4.4987,4.498,4.4974,4.4976,4.4973,4.4973,4.4979,4.4979,4.4978,4.4978,0,0,4.5217,4.5185,4.5183,4.5172,4.5148,4.5135,4.5121,4.5101,4.5092,4.5074,4.5061,4.5036,4.5029,4.5015,4.5002,4.4993,4.4991,4.4987,4.4986,4.4988,4.4976,4.4981,4.4981,4.4983,4.4983,4.4983,4.4978,0,4.5213,4.519,4.5175,4.5156,4.5143,4.5127,4.5115,4.5098,4.5084,4.5069,4.5053,4.5036,4.5029,4.502,4.5011,4.4993,4.4988,4.4993,4.497,4.4969,4.4976,4.4979,4.4985,4.4981,4.4977,4.4976,4.4976,0,4.5206,4.5191,4.5172,4.5149,4.5143,4.5132,4.5113,4.5099,4.5079,4.507,4.5055,4.5041,4.5025,4.5021,4.4997,4.5001,4.4991,4.4981,4.498,4.4977,4.4973,4.4976,4.4979,4.4979,4.4975,4.4975,4.4975,0,4.5215,4.5189,4.5174,4.5166,4.5139,4.5132,4.512,4.51,4.5089,4.5071,4.5064,4.5043,4.5032,4.5016,4.4997,4.4996,4.4976,4.497,4.4966,4.4967,4.4962,4.4963,4.4964,4.4956,4.4956,4.4956,4.4956,0,4.5212,4.5201,4.5178,4.5169,4.5156,4.5138,4.5125,4.5112,4.5095,4.5082,4.5066,4.5054,4.503,4.5015,4.5,4.4983,4.4977,4.4968,4.4965,4.497,4.4971,4.4962,4.4962,4.4956,4.4956,4.4956,4.4956,0,4.522,4.5204,4.5187,4.5164,4.5158,4.5149,4.5129,4.5118,4.5105,4.5088,4.5084,4.5061,4.5042,4.5022,4.4996,4.4986,4.4969,4.4963,4.4976,4.4974,4.4972,4.4972,4.4967,4.4965,4.4959,4.4959,4.4959,0,4.5219,4.5211,4.5187,4.5179,4.5168,4.5154,4.5143,4.5125,4.5114,4.5091,4.5084,4.5064,4.5048,4.5018,4.4998,4.4978,4.4972,4.4972,4.4969,4.4974,4.4972,4.4973,4.4971,4.4972,4.4972,4.4973,4.4973,0,4.522,4.5213,4.5199,4.5182,4.517,4.5156,4.514,4.5134,4.5112,4.5101,4.5082,4.507,4.5044,4.5025,4.5003,4.4989,4.4977,4.4974,4.4972,4.4977,4.4985,4.4981,4.4979,4.4974,4.4974,4.4974,4.4974,4.4974,4.5223,4.5215,4.5198,4.5183,4.517,4.5156,4.5146,4.5132,4.5117,4.5096,4.5086,4.5067,4.5047,4.5017,4.5003,4.4987,4.4984,4.4981,4.498,4.498,4.4981,4.4988,4.4983,4.4983,4.4983,4.4983,4.4983,0,4.5223,4.5212,4.5198,4.5178,4.5166,4.5159,4.5141,4.5131,4.5116,4.5099,4.5084,4.5063,4.5044,4.5024,4.5003,4.4995,4.4989,4.499,4.499,4.4987,4.4986,4.4989,4.4995,4.4995,4.4995,4.4995,4.4995,4.4995,4.5222,4.5208,4.5199,4.5178,4.5166,4.515,4.5141,4.5128,4.5114,4.5092,4.5077,4.5065,4.5046,4.5025,4.5007,4.5001,4.4994,4.4997,4.4989,4.4988,4.4987,4.4986,4.499,4.4995,4.4995,4.4992,4.4992,4.4992]}]]